Weather History for Nashville, TN

Change the Weather History Date:

Tuesday, September 25, 2012

  Actual Average Record
Temperature  
Mean Temperature 67 °F 68 °F  
Max Temperature 81 °F 79 °F 95 °F (1931)
Min Temperature 52 °F 57 °F 41 °F (1965)
Degree Days  
Heating Degree Days 0    
Month to date heating degree days 21  
Since 1 July heating degree days 21  
Cooling Degree Days 2    
Month to date cooling degree days 179  
Year to date cooling degree days 1925  
Growing Degree Days 16 (Base 50)    
Moisture  
Dew Point 52 °F    
Average Humidity 58    
Maximum Humidity 77    
Minimum Humidity 38    
Precipitation  
Precipitation 0.00 in 0.12 in 1.98 in (1926)
Month to date precipitation 5.55 2.81  
Year to date precipitation 35.81 35.06  
Snow  
Snow 0.00 in 0.00 in 0.00 in (2002)
Month to date snowfall 0.0 0.0  
Since 1 July snowfall 0.0 0.0  
Since 1 September snowfall 0.0 0.0  
Snow Depth 0.00 in    
Sea Level Pressure  
Sea Level Pressure 30.08 in    
Wind  
Wind Speed 9 mph (South)    
Max Wind Speed 17 mph    
Max Gust Speed 23 mph    
Visibility 10 miles    
Events      
T = Trace of Precipitation, MM = Missing Value Source: NWS Daily Summary

Daily Weather History Graph

Daily Weather History Graph

Search for Another Location

Airport:

Trip Planner

Search our weather history database for the weather conditions in past years. The results will help you decide how hot, cold, wet, or windy it might be!

Date:

Astronomy

Sep. 25, 2012 Rise Set
Actual Time 6:37 AM CDT 6:38 PM CDT
Civil Twilight 6:11 AM CDT 7:04 PM CDT
Nautical Twilight 5:41 AM CDT 7:33 PM CDT
Astronomical Twilight 5:11 AM CDT 8:03 PM CDT
Moon 3:56 PM CDT (9/25) 2:05 AM CDT (9/25)
Length of Visible Light 12h 52m
Length of Day
12h 01m
Waxing Gibbous, 80% of the Moon is Illuminated
Sep 25
Waxing Gibbous
Sep 29
Full
Oct 8
Last Quarter
Oct 15
New
Oct 21
First Quarter

Hourly Weather History & Observations

Time (CDT) Temp. Heat Index Dew Point Humidity Pressure Visibility Wind Dir Wind Speed Gust Speed Precip Events Conditions
12:53 AM 57.0 °F - 44.1 °F 62% 30.09 in 10.0 mi SE 3.5 mph - N/A   Clear
1:53 AM 53.1 °F - 46.0 °F 77% 30.09 in 10.0 mi South 4.6 mph - N/A   Clear
2:53 AM 54.0 °F - 46.9 °F 77% 30.07 in 10.0 mi SSE 5.8 mph - N/A   Clear
3:53 AM 57.9 °F - 46.0 °F 65% 30.09 in 10.0 mi Calm Calm - N/A   Clear
4:53 AM 57.0 °F - 46.9 °F 69% 30.09 in 10.0 mi South 3.5 mph - N/A   Clear
5:53 AM 57.0 °F - 46.9 °F 69% 30.09 in 10.0 mi South 5.8 mph - N/A   Clear
6:53 AM 57.0 °F - 48.0 °F 72% 30.10 in 10.0 mi South 8.1 mph - N/A   Mostly Cloudy
7:53 AM 62.1 °F - 48.0 °F 60% 30.10 in 10.0 mi South 6.9 mph - N/A   Scattered Clouds
8:53 AM 69.1 °F - 48.0 °F 47% 30.11 in 10.0 mi South 13.8 mph 19.6 mph N/A   Mostly Cloudy
9:53 AM 71.1 °F - 46.9 °F 42% 30.12 in 10.0 mi SSW 6.9 mph - N/A   Overcast
10:53 AM 73.9 °F - 46.9 °F 38% 30.12 in 10.0 mi SSW 11.5 mph - N/A   Mostly Cloudy
11:53 AM 77.0 °F - 51.1 °F 40% 30.11 in 10.0 mi SSW 15.0 mph 21.9 mph N/A   Mostly Cloudy
12:53 PM 78.1 °F - 55.9 °F 46% 30.09 in 10.0 mi SSW 11.5 mph - N/A   Mostly Cloudy
1:53 PM 78.8 °F - 60.8 °F 54% 30.08 in 10.0 mi SW 9.2 mph - N/A   Overcast
2:53 PM 79.0 °F - 62.1 °F 56% 30.05 in 10.0 mi SSW 11.5 mph - N/A   Overcast
3:53 PM 79.0 °F - 62.1 °F 56% 30.03 in 10.0 mi SE 6.9 mph - N/A   Mostly Cloudy
4:53 PM 81.0 °F 82.5 °F 64.0 °F 56% 30.03 in 10.0 mi South 13.8 mph 21.9 mph N/A   Mostly Cloudy
5:53 PM 79.0 °F - 61.0 °F 54% 30.03 in 10.0 mi South 13.8 mph - N/A   Scattered Clouds
6:53 PM 75.0 °F - 59.0 °F 57% 30.03 in 10.0 mi South 9.2 mph - N/A   Scattered Clouds
7:53 PM 72.0 °F - 57.0 °F 59% 30.02 in 10.0 mi South 10.4 mph - N/A   Clear
8:53 PM 71.1 °F - 55.9 °F 59% 30.04 in 10.0 mi South 8.1 mph - N/A   Partly Cloudy
9:53 PM 72.0 °F - 55.9 °F 57% 30.07 in 10.0 mi South 12.7 mph - N/A   Mostly Cloudy
10:53 PM 72.0 °F - 54.0 °F 53% 30.08 in 10.0 mi South 12.7 mph - N/A   Scattered Clouds
11:53 PM 71.6 °F - 53.6 °F 53% 30.09 in 10.0 mi SSW 11.5 mph 17.3 mph N/A   Scattered Clouds